Calgary Springbank,

3:44 PM MST on January 23, 2018 (GMT -0700)
Calgary Springbank

Weather History for CYBW - August, 2014

Change the Weather History Date:

Monday, August 18, 2014

  Actual Average Record
Temperature  
Mean Temperature 63 °F -  
Max Temperature 78 °F 63 °F 89 °F (2003)
Min Temperature 48 °F 38 °F 32 °F (1996)
Degree Days  
Heating Degree Days 2    
Growing Degree Days 13 (Base 50)    
Moisture  
Dew Point 51 °F    
Average Humidity 76    
Maximum Humidity 100    
Minimum Humidity 32    
Precipitation  
Precipitation 0.00 in - - ()
Sea Level Pressure  
Sea Level Pressure 29.97 in    
Wind  
Wind Speed 4 mph ()    
Max Wind Speed 9 mph    
Max Gust Speed -    
Visibility 7.8 miles    
Events      
Averages and records for this station are not official NWS values.
T = Trace of Precipitation, MM = Missing Value Source: Averaged Metar Reports

Daily Weather History Graph

Daily Weather History Graph

Search for Another Location

Airport or City:

Trip Planner

Search our weather history database for the weather conditions in past years. The results will help you decide how hot, cold, wet, or windy it might be!

Date:

Astronomy

Aug. 18, 2014 Rise Set
Actual Time 6:29 AM MDT 8:52 PM MDT
Civil Twilight 5:52 AM MDT 9:28 PM MDT
Nautical Twilight 5:06 AM MDT 10:14 PM MDT
Astronomical Twilight 4:11 AM MDT 11:08 PM MDT
Moon 12:30 AM MDT (8/18) 4:10 PM MDT (8/18)
Length of Visible Light 15h 36m
Length of Day
14h 23m
Last Quarter, 38% of the Moon is Illuminated
Aug 18
Last Quarter
Aug 25
New
Sep 2
First Quarter
Sep 8
Full
Sep 15
Last Quarter

Hourly Weather History & Observations

Time (MDT) Temp. Dew Point Humidity Pressure Visibility Wind Dir Wind Speed Gust Speed Precip Events Conditions
12:00 AM 55.4 °F 51.8 °F 88% 30.06 in 9.0 mi Calm Calm - N/A   Clear
1:00 AM 53.6 °F 51.8 °F 94% 30.06 in 9.0 mi NW 3.5 mph - N/A   Clear
1:40 AM 51.8 °F 50.0 °F 94% 30.06 in 5.0 mi NW 3.5 mph - N/A   Clear
1:53 AM 50.0 °F 48.2 °F 94% 30.06 in 6.0 mi NW 3.5 mph - N/A   Clear
2:00 AM 51.8 °F 50.0 °F 94% 30.06 in 7.0 mi WNW 3.5 mph - N/A   Clear
2:40 AM 50.0 °F 50.0 °F 100% 30.05 in 5.0 mi NW 3.5 mph - N/A   Clear
2:45 AM 50.0 °F 50.0 °F 100% 30.05 in 2.2 mi WNW 3.5 mph - N/A   Clear
2:57 AM 48.2 °F 48.2 °F 100% 30.05 in 3.0 mi West 3.5 mph - N/A   Clear
3:00 AM 48.2 °F 48.2 °F 100% 30.05 in 6.0 mi WNW 3.5 mph - N/A   Clear
4:00 AM 48.2 °F 46.4 °F 93% 30.04 in 9.0 mi NW 4.6 mph - N/A   Clear
6:00 AM 48.2 °F 46.4 °F 93% 30.02 in 9.0 mi NW 5.8 mph - N/A   Clear
7:00 AM 48.2 °F 48.2 °F 100% 30.02 in 9.0 mi WNW 3.5 mph - N/A   Clear
8:00 AM 51.8 °F 50.0 °F 94% 30.01 in 9.0 mi West 3.5 mph - N/A   Clear
9:00 AM 57.2 °F 55.4 °F 94% 29.99 in 9.0 mi Variable 2.3 mph - N/A   Clear
10:00 AM 64.4 °F 55.4 °F 73% 29.98 in 9.0 mi NW 6.9 mph - N/A   Clear
11:00 AM 71.6 °F 55.4 °F 57% 29.94 in 9.0 mi NNW 9.2 mph - N/A   Scattered Clouds
12:00 PM 75.2 °F 50.0 °F 41% 29.92 in 9.0 mi NNW 8.1 mph - N/A   Clear
1:00 PM 75.2 °F 50.0 °F 41% 29.91 in 9.0 mi Variable 6.9 mph - N/A   Clear
2:00 PM 77.0 °F 50.0 °F 39% 29.90 in 9.0 mi Variable 5.8 mph - N/A   Clear
3:00 PM 78.8 °F 50.0 °F 36% 29.88 in 9.0 mi SSE 5.8 mph - N/A   Clear
4:00 PM 78.8 °F 46.4 °F 32% 29.85 in 9.0 mi Calm Calm - N/A   Clear
6:00 PM 78.8 °F 51.8 °F 39% 29.82 in 9.0 mi South 6.9 mph - N/A   Clear
7:00 PM 77.0 °F 53.6 °F 44% 29.81 in 9.0 mi SSE 6.9 mph - N/A   Clear
9:00 PM 64.4 °F 55.4 °F 73% 29.81 in 9.0 mi South 8.1 mph - N/A   Clear
11:00 PM 59.0 °F 51.8 °F 77% 29.78 in 9.0 mi WNW 6.9 mph - N/A   Mostly Cloudy